Time,TemperatureF,DewpointF,PressureIn,WindDirection,WindDirectionDegrees,WindSpeedMPH,WindSpeedGustMPH,Humidity,HourlyPrecipIn,Conditions,Clouds,dailyrainin,SoftwareType,DateUTC
2013-03-25 00:00:00,36.7,32.0,29.79,South,191,1.0,2.0,83,0.00,,---,0.00,VWS V14.01,2013-03-25 04:00:00,
2013-03-25 00:05:00,36.5,32.1,29.79,SSW,192,0.0,1.0,84,0.00,,---,0.00,VWS V14.01,2013-03-25 04:05:00,
2013-03-25 00:10:00,36.4,32.0,29.79,SSW,192,0.0,0.0,84,0.00,,---,0.00,VWS V14.01,2013-03-25 04:10:00,
2013-03-25 00:15:00,36.2,32.1,29.79,South,191,0.0,1.0,85,0.00,,---,0.00,VWS V14.01,2013-03-25 04:15:00,
2013-03-25 00:20:00,36.1,32.3,29.79,South,191,0.0,1.0,86,0.00,,---,0.00,VWS V14.01,2013-03-25 04:20:00,
2013-03-25 00:25:00,36.0,32.2,29.79,South,191,0.0,1.0,86,0.00,,---,0.00,VWS V14.01,2013-03-25 04:25:00,
2013-03-25 00:30:00,35.9,32.1,29.79,South,191,0.0,0.0,86,0.00,,---,0.00,VWS V14.01,2013-03-25 04:30:00,
2013-03-25 00:35:00,35.8,32.0,29.78,South,191,0.0,1.0,86,0.00,,---,0.00,VWS V14.01,2013-03-25 04:35:00,
2013-03-25 00:40:00,35.7,31.9,29.78,South,191,0.0,0.0,86,0.00,,---,0.00,VWS V14.01,2013-03-25 04:40:00,
2013-03-25 00:45:00,35.6,31.8,29.78,South,191,0.0,1.0,86,0.00,,---,0.00,VWS V14.01,2013-03-25 04:45:00,
2013-03-25 00:50:00,35.6,31.8,29.78,SSW,192,0.0,1.0,86,0.00,,---,0.00,VWS V14.01,2013-03-25 04:50:00,
2013-03-25 00:55:00,35.6,32.1,29.78,South,191,0.0,0.0,87,0.00,,---,0.00,VWS V14.01,2013-03-25 04:55:00,
2013-03-25 01:00:00,35.6,32.1,29.78,South,191,0.0,1.0,87,0.00,,---,0.00,VWS V14.01,2013-03-25 05:00:00,
2013-03-25 01:05:00,35.4,31.9,29.77,South,191,1.0,1.0,87,0.00,,---,0.00,VWS V14.01,2013-03-25 05:05:00,
2013-03-25 01:10:00,35.3,31.8,29.77,South,191,1.0,2.0,87,0.00,,---,0.00,VWS V14.01,2013-03-25 05:10:00,
2013-03-25 01:15:00,35.2,31.4,29.77,South,191,1.0,3.0,86,0.00,,---,0.00,VWS V14.01,2013-03-25 05:15:00,
2013-03-25 01:20:00,35.1,31.3,29.78,South,191,2.0,3.0,86,0.00,,---,0.00,VWS V14.01,2013-03-25 05:20:00,
2013-03-25 01:25:00,35.0,31.2,29.77,South,191,3.0,3.0,86,0.00,,---,0.00,VWS V14.01,2013-03-25 05:25:00,
2013-03-25 01:30:00,35.0,31.2,29.77,South,191,2.0,2.0,86,0.00,,---,0.00,VWS V14.01,2013-03-25 05:30:00,
2013-03-25 01:35:00,34.8,31.3,29.77,South,191,2.0,3.0,87,0.00,,---,0.00,VWS V14.01,2013-03-25 05:35:00,
2013-03-25 01:40:00,34.8,31.3,29.77,South,191,2.0,3.0,87,0.00,,---,0.00,VWS V14.01,2013-03-25 05:40:00,
2013-03-25 01:45:00,34.7,31.2,29.77,South,191,1.0,3.0,87,0.00,,---,0.00,VWS V14.01,2013-03-25 05:45:00,
2013-03-25 01:50:00,34.6,31.1,29.77,South,191,0.0,0.0,87,0.00,,---,0.00,VWS V14.01,2013-03-25 05:50:00,
2013-03-25 01:55:00,34.4,31.2,29.77,South,191,0.0,0.0,88,0.00,,---,0.00,VWS V14.01,2013-03-25 05:55:00,
2013-03-25 02:00:00,34.3,31.1,29.77,South,191,0.0,0.0,88,0.00,,---,0.00,VWS V14.01,2013-03-25 06:00:00,
2013-03-25 02:05:00,34.2,31.0,29.77,South,191,2.0,2.0,88,0.00,,---,0.00,VWS V14.01,2013-03-25 06:05:00,
2013-03-25 02:10:00,34.1,30.9,29.76,South,191,2.0,2.0,88,0.00,,---,0.00,VWS V14.01,2013-03-25 06:10:00,
2013-03-25 02:15:00,34.0,30.8,29.76,SSW,192,0.0,0.0,88,0.00,,---,0.00,VWS V14.01,2013-03-25 06:15:00,
2013-03-25 02:20:00,34.0,30.8,29.76,SSW,192,1.0,1.0,88,0.00,,---,0.00,VWS V14.01,2013-03-25 06:20:00,
2013-03-25 02:25:00,33.9,30.7,29.76,SSW,192,1.0,2.0,88,0.00,,---,0.00,VWS V14.01,2013-03-25 06:25:00,
2013-03-25 02:30:00,33.9,30.5,29.76,SW,231,2.0,3.0,87,0.00,,---,0.00,VWS V14.01,2013-03-25 06:30:00,
2013-03-25 02:35:00,33.8,30.6,29.76,SW,231,1.0,3.0,88,0.00,,---,0.00,VWS V14.01,2013-03-25 06:35:00,
2013-03-25 02:40:00,33.8,30.6,29.76,WSW,238,4.0,4.0,88,0.00,,---,0.00,VWS V14.01,2013-03-25 06:40:00,
2013-03-25 02:45:00,33.9,30.5,29.75,WSW,238,1.0,3.0,87,0.00,,---,0.00,VWS V14.01,2013-03-25 06:45:00,
2013-03-25 02:50:00,33.9,30.5,29.75,WSW,238,1.0,1.0,87,0.00,,---,0.00,VWS V14.01,2013-03-25 06:50:00,
2013-03-25 02:55:00,33.9,30.2,29.75,WSW,254,5.0,5.0,86,0.00,,---,0.00,VWS V14.01,2013-03-25 06:55:00,
2013-03-25 03:00:00,33.9,30.2,29.75,West,273,3.0,3.0,86,0.00,,---,0.00,VWS V14.01,2013-03-25 07:00:00,
2013-03-25 03:05:00,33.9,30.5,29.75,West,273,0.0,0.0,87,0.00,,---,0.00,VWS V14.01,2013-03-25 07:05:00,
2013-03-25 03:10:00,33.9,30.5,29.75,West,273,0.0,0.0,87,0.00,,---,0.00,VWS V14.01,2013-03-25 07:10:00,
2013-03-25 03:15:00,33.9,30.5,29.75,West,273,0.0,0.0,87,0.00,,---,0.00,VWS V14.01,2013-03-25 07:15:00,
2013-03-25 03:20:00,33.9,30.5,29.75,West,273,0.0,0.0,87,0.00,,---,0.00,VWS V14.01,2013-03-25 07:20:00,
2013-03-25 03:25:00,33.8,30.1,29.75,West,273,0.0,0.0,86,0.00,,---,0.00,VWS V14.01,2013-03-25 07:25:00,
2013-03-25 03:30:00,33.8,30.1,29.75,West,273,0.0,1.0,86,0.00,,---,0.00,VWS V14.01,2013-03-25 07:30:00,
2013-03-25 03:35:00,33.9,30.2,29.75,West,274,5.0,5.0,86,0.00,,---,0.00,VWS V14.01,2013-03-25 07:35:00,
2013-03-25 03:40:00,33.9,30.2,29.74,West,273,1.0,2.0,86,0.00,,---,0.00,VWS V14.01,2013-03-25 07:40:00,
2013-03-25 03:45:00,33.9,29.9,29.74,West,273,1.0,1.0,85,0.00,,---,0.00,VWS V14.01,2013-03-25 07:45:00,
2013-03-25 03:50:00,33.9,29.9,29.74,West,273,0.0,0.0,85,0.00,,---,0.00,VWS V14.01,2013-03-25 07:50:00,
2013-03-25 03:55:00,33.8,30.1,29.73,West,274,0.0,1.0,86,0.00,,---,0.00,VWS V14.01,2013-03-25 07:55:00,
2013-03-25 04:00:00,33.7,30.0,29.73,West,273,0.0,2.0,86,0.00,,---,0.00,VWS V14.01,2013-03-25 08:00:00,
2013-03-25 04:05:00,33.6,29.6,29.73,West,274,1.0,3.0,85,0.00,,---,0.00,VWS V14.01,2013-03-25 08:05:00,
2013-03-25 04:10:00,33.5,29.5,29.73,West,273,3.0,4.0,85,0.00,,---,0.00,VWS V14.01,2013-03-25 08:10:00,
2013-03-25 04:15:00,33.5,29.5,29.73,WNW,289,1.0,4.0,85,0.00,,---,0.00,VWS V14.01,2013-03-25 08:15:00,
2013-03-25 04:20:00,33.4,29.7,29.73,WNW,290,0.0,4.0,86,0.00,,---,0.00,VWS V14.01,2013-03-25 08:20:00,
2013-03-25 04:25:00,33.4,29.4,29.73,WNW,299,4.0,4.0,85,0.00,,---,0.00,VWS V14.01,2013-03-25 08:25:00,
2013-03-25 04:30:00,33.5,29.5,29.73,WNW,301,3.0,3.0,85,0.00,,---,0.00,VWS V14.01,2013-03-25 08:30:00,
2013-03-25 04:35:00,33.5,29.5,29.72,NW,316,1.0,2.0,85,0.00,,---,0.00,VWS V14.01,2013-03-25 08:35:00,
2013-03-25 04:40:00,33.4,29.4,29.72,North,349,3.0,4.0,85,0.00,,---,0.00,VWS V14.01,2013-03-25 08:40:00,
2013-03-25 04:45:00,33.5,29.2,29.72,North,350,4.0,6.0,84,0.00,,---,0.00,VWS V14.01,2013-03-25 08:45:00,
2013-03-25 04:50:00,33.5,29.2,29.72,North,352,2.0,4.0,84,0.00,,---,0.00,VWS V14.01,2013-03-25 08:50:00,
2013-03-25 04:56:00,33.5,29.2,29.72,North,355,5.0,5.0,84,0.00,,---,0.00,VWS V14.01,2013-03-25 08:56:00,
2013-03-25 05:01:00,33.5,28.9,29.72,North,6,5.0,5.0,83,0.00,,---,0.00,VWS V14.01,2013-03-25 09:01:00,
2013-03-25 05:06:00,33.5,28.9,29.71,NNE,14,2.0,4.0,83,0.00,,---,0.00,VWS V14.01,2013-03-25 09:06:00,
2013-03-25 05:11:00,33.4,28.8,29.71,North,360,3.0,5.0,83,0.00,,---,0.00,VWS V14.01,2013-03-25 09:11:00,
2013-03-25 05:16:00,33.4,28.8,29.71,North,350,3.0,5.0,83,0.00,,---,0.00,VWS V14.01,2013-03-25 09:16:00,
2013-03-25 05:21:00,33.3,28.7,29.71,North,351,3.0,4.0,83,0.00,,---,0.00,VWS V14.01,2013-03-25 09:21:00,
2013-03-25 05:26:00,33.3,28.7,29.70,North,358,2.0,5.0,83,0.00,,---,0.00,VWS V14.01,2013-03-25 09:26:00,
2013-03-25 05:31:00,33.4,28.8,29.70,North,8,7.0,7.0,83,0.00,,---,0.00,VWS V14.01,2013-03-25 09:31:00,
2013-03-25 05:36:00,33.4,28.8,29.70,North,10,5.0,5.0,83,0.00,,---,0.00,VWS V14.01,2013-03-25 09:36:00,
2013-03-25 05:41:00,33.5,28.9,29.71,North,8,5.0,6.0,83,0.00,,---,0.00,VWS V14.01,2013-03-25 09:41:00,
2013-03-25 05:46:00,33.5,28.9,29.71,North,4,4.0,6.0,83,0.00,,---,0.00,VWS V14.01,2013-03-25 09:46:00,
2013-03-25 05:51:00,33.6,29.0,29.70,North,4,3.0,5.0,83,0.00,,---,0.00,VWS V14.01,2013-03-25 09:51:00,
2013-03-25 05:56:00,33.7,29.1,29.71,North,6,4.0,4.0,83,0.00,,---,0.00,VWS V14.01,2013-03-25 09:56:00,
2013-03-25 06:02:00,33.7,29.1,29.71,North,7,2.0,3.0,83,0.00,,---,0.00,VWS V14.01,2013-03-25 10:02:00,
2013-03-25 06:07:00,33.8,29.5,29.71,North,7,1.0,4.0,84,0.00,,---,0.00,VWS V14.01,2013-03-25 10:07:00,
2013-03-25 06:12:00,33.9,29.9,29.70,North,10,3.0,6.0,85,0.00,,---,0.00,VWS V14.01,2013-03-25 10:12:00,
2013-03-25 06:17:00,34.1,30.1,29.70,NE,43,4.0,7.0,85,0.00,,---,0.00,VWS V14.01,2013-03-25 10:17:00,
2013-03-25 06:22:00,34.3,30.0,29.70,NNE,24,5.0,7.0,84,0.00,,---,0.00,VWS V14.01,2013-03-25 10:22:00,
2013-03-25 06:27:00,34.4,30.1,29.70,NE,54,5.0,6.0,84,0.00,,---,0.00,VWS V14.01,2013-03-25 10:27:00,
2013-03-25 06:32:00,34.4,30.4,29.70,NE,41,2.0,5.0,85,0.00,,---,0.00,VWS V14.01,2013-03-25 10:32:00,
2013-03-25 06:37:00,34.3,30.3,29.70,NE,55,4.0,5.0,85,0.00,,---,0.00,VWS V14.01,2013-03-25 10:37:00,
2013-03-25 06:42:00,34.3,30.6,29.70,NE,41,0.0,5.0,86,0.00,,---,0.00,VWS V14.01,2013-03-25 10:42:00,
2013-03-25 06:47:00,34.3,30.6,29.70,NNE,12,4.0,5.0,86,0.00,,---,0.00,VWS V14.01,2013-03-25 10:47:00,
2013-03-25 06:52:00,34.4,30.9,29.70,NNE,29,4.0,6.0,87,0.00,,---,0.00,VWS V14.01,2013-03-25 10:52:00,
2013-03-25 06:57:00,34.4,30.9,29.70,NNE,33,4.0,9.0,87,0.00,,---,0.00,VWS V14.01,2013-03-25 10:57:00,
2013-03-25 07:02:00,34.6,31.1,29.70,NE,35,3.0,5.0,87,0.00,,---,0.00,VWS V14.01,2013-03-25 11:02:00,
2013-03-25 07:07:00,34.7,31.5,29.70,ENE,60,4.0,6.0,88,0.00,,---,0.00,VWS V14.01,2013-03-25 11:07:00,
2013-03-25 07:12:00,34.8,31.6,29.70,NE,39,1.0,6.0,88,0.00,,---,0.00,VWS V14.01,2013-03-25 11:12:00,
2013-03-25 07:17:00,35.0,31.8,29.70,ENE,58,2.0,7.0,88,0.00,,---,0.00,VWS V14.01,2013-03-25 11:17:00,
2013-03-25 07:22:00,35.2,32.3,29.70,NNE,33,4.0,6.0,89,0.00,,---,0.00,VWS V14.01,2013-03-25 11:22:00,
2013-03-25 07:27:00,35.3,32.1,29.70,NE,54,0.0,6.0,88,0.00,,---,0.00,VWS V14.01,2013-03-25 11:27:00,
2013-03-25 07:32:00,35.5,32.3,29.70,NNE,24,2.0,7.0,88,0.00,,---,0.00,VWS V14.01,2013-03-25 11:32:00,
2013-03-25 07:37:00,35.8,32.6,29.70,NE,40,4.0,5.0,88,0.00,,---,0.00,VWS V14.01,2013-03-25 11:37:00,
2013-03-25 07:42:00,36.0,32.8,29.70,NE,38,4.0,6.0,88,0.00,,---,0.00,VWS V14.01,2013-03-25 11:42:00,
2013-03-25 07:47:00,36.2,33.0,29.70,NE,43,2.0,7.0,88,0.00,,---,0.00,VWS V14.01,2013-03-25 11:47:00,
2013-03-25 07:52:00,36.5,33.3,29.70,NE,46,4.0,6.0,88,0.00,,---,0.00,VWS V14.01,2013-03-25 11:52:00,
2013-03-25 07:57:00,36.8,33.6,29.70,NE,41,4.0,6.0,88,0.00,,---,0.00,VWS V14.01,2013-03-25 11:57:00,
2013-03-25 08:02:00,37.0,33.5,29.70,NE,51,3.0,8.0,87,0.00,,---,0.00,VWS V14.01,2013-03-25 12:02:00,
2013-03-25 08:07:00,37.3,33.5,29.70,NE,45,6.0,10.0,86,0.00,,---,0.00,VWS V14.01,2013-03-25 12:07:00,
2013-03-25 08:12:00,37.5,33.7,29.70,NE,41,5.0,5.0,86,0.00,,---,0.00,VWS V14.01,2013-03-25 12:12:00,
2013-03-25 08:18:00,37.8,34.0,29.70,ENE,72,3.0,9.0,86,0.00,,---,0.00,VWS V14.01,2013-03-25 12:18:00,
2013-03-25 08:23:00,38.0,33.9,29.70,NNE,24,1.0,7.0,85,0.00,,---,0.00,VWS V14.01,2013-03-25 12:23:00,
2013-03-25 08:28:00,38.3,34.2,29.70,NE,46,5.0,6.0,85,0.00,,---,0.00,VWS V14.01,2013-03-25 12:28:00,
2013-03-25 08:33:00,38.5,34.1,29.70,ENE,67,2.0,6.0,84,0.00,,---,0.00,VWS V14.01,2013-03-25 12:33:00,
2013-03-25 08:38:00,38.7,34.3,29.70,NE,49,0.0,7.0,84,0.00,,---,0.00,VWS V14.01,2013-03-25 12:38:00,
2013-03-25 08:43:00,38.9,34.5,29.70,NE,51,3.0,7.0,84,0.00,,---,0.00,VWS V14.01,2013-03-25 12:43:00,
2013-03-25 08:48:00,39.1,34.7,29.70,NE,38,9.0,9.0,84,0.00,,---,0.00,VWS V14.01,2013-03-25 12:48:00,
2013-03-25 08:53:00,39.4,34.7,29.70,ENE,57,4.0,11.0,83,0.00,,---,0.00,VWS V14.01,2013-03-25 12:53:00,
2013-03-25 08:58:00,39.5,34.8,29.69,NE,35,6.0,10.0,83,0.00,,---,0.00,VWS V14.01,2013-03-25 12:58:00,
2013-03-25 09:03:00,39.5,34.8,29.69,East,87,4.0,7.0,83,0.00,,---,0.00,VWS V14.01,2013-03-25 13:03:00,
2013-03-25 09:08:00,39.7,35.0,29.69,ENE,65,6.0,9.0,83,0.00,,---,0.00,VWS V14.01,2013-03-25 13:08:00,
2013-03-25 09:13:00,39.7,35.0,29.69,ENE,66,7.0,9.0,83,0.00,,---,0.00,VWS V14.01,2013-03-25 13:13:00,
2013-03-25 09:18:00,39.7,34.7,29.68,NE,44,6.0,11.0,82,0.00,,---,0.00,VWS V14.01,2013-03-25 13:18:00,
2013-03-25 09:23:00,39.9,34.9,29.68,NE,56,7.0,13.0,82,0.00,,---,0.00,VWS V14.01,2013-03-25 13:23:00,
2013-03-25 09:28:00,39.8,34.8,29.67,ENE,58,5.0,11.0,82,0.00,,---,0.00,VWS V14.01,2013-03-25 13:28:00,
2013-03-25 09:33:00,39.7,34.7,29.67,ENE,69,7.0,14.0,82,0.00,,---,0.00,VWS V14.01,2013-03-25 13:33:00,
2013-03-25 09:38:00,39.8,35.1,29.67,NE,44,11.0,12.0,83,0.00,,---,0.00,VWS V14.01,2013-03-25 13:38:00,
2013-03-25 09:43:00,40.0,35.3,29.67,NNE,33,9.0,12.0,83,0.00,,---,0.00,VWS V14.01,2013-03-25 13:43:00,
2013-03-25 09:48:00,40.2,35.2,29.66,ENE,62,10.0,12.0,82,0.00,,---,0.00,VWS V14.01,2013-03-25 13:48:00,
2013-03-25 09:53:00,40.6,35.5,29.66,ENE,60,4.0,12.0,82,0.00,,---,0.00,VWS V14.01,2013-03-25 13:53:00,
2013-03-25 09:58:00,41.1,35.1,29.66,ESE,103,3.0,15.0,79,0.00,,---,0.00,VWS V14.01,2013-03-25 13:58:00,
2013-03-25 10:03:00,41.4,33.8,29.66,ENE,76,12.0,15.0,74,0.00,,---,0.00,VWS V14.01,2013-03-25 14:03:00,
2013-03-25 10:08:00,41.5,33.5,29.66,ENE,73,12.0,15.0,73,0.00,,---,0.00,VWS V14.01,2013-03-25 14:08:00,
2013-03-25 10:13:00,41.5,33.2,29.66,NE,50,6.0,16.0,72,0.00,,---,0.00,VWS V14.01,2013-03-25 14:13:00,
2013-03-25 10:18:00,41.6,33.3,29.66,ENE,60,8.0,15.0,72,0.00,,---,0.00,VWS V14.01,2013-03-25 14:18:00,
2013-03-25 10:23:00,41.6,33.3,29.66,NE,54,8.0,13.0,72,0.00,,---,0.00,VWS V14.01,2013-03-25 14:23:00,
2013-03-25 10:28:00,41.8,33.1,29.65,NE,42,5.0,14.0,71,0.00,,---,0.00,VWS V14.01,2013-03-25 14:28:00,
2013-03-25 10:33:00,42.1,33.0,29.65,ENE,70,11.0,15.0,70,0.00,,---,0.00,VWS V14.01,2013-03-25 14:33:00,
2013-03-25 10:38:00,42.3,33.6,29.65,ENE,65,11.0,16.0,71,0.00,,---,0.00,VWS V14.01,2013-03-25 14:38:00,
2013-03-25 10:43:00,42.9,33.1,29.65,NE,40,7.0,14.0,68,0.00,,---,0.00,VWS V14.01,2013-03-25 14:43:00,
2013-03-25 10:48:00,43.4,33.6,29.66,ENE,64,2.0,11.0,68,0.00,,---,0.00,VWS V14.01,2013-03-25 14:48:00,
2013-03-25 10:53:00,43.8,33.6,29.65,North,8,9.0,16.0,67,0.00,,---,0.00,VWS V14.01,2013-03-25 14:53:00,
2013-03-25 10:58:00,43.7,33.1,29.66,NE,48,7.0,13.0,66,0.00,,---,0.00,VWS V14.01,2013-03-25 14:58:00,
2013-03-25 11:03:00,43.6,32.2,29.66,ENE,66,4.0,14.0,64,0.00,,---,0.00,VWS V14.01,2013-03-25 15:03:00,
2013-03-25 11:08:00,43.1,33.3,29.66,ENE,70,6.0,14.0,68,0.00,,---,0.00,VWS V14.01,2013-03-25 15:08:00,
2013-03-25 11:13:00,42.8,33.0,29.66,ENE,71,13.0,13.0,68,0.00,,---,0.00,VWS V14.01,2013-03-25 15:13:00,
2013-03-25 11:18:00,42.7,32.9,29.65,NE,50,6.0,15.0,68,0.00,,---,0.00,VWS V14.01,2013-03-25 15:18:00,
2013-03-25 11:23:00,42.7,32.5,29.65,NE,54,6.0,14.0,67,0.00,,---,0.00,VWS V14.01,2013-03-25 15:23:00,
2013-03-25 11:28:00,42.5,32.0,29.65,ENE,70,6.0,15.0,66,0.00,,---,0.00,VWS V14.01,2013-03-25 15:28:00,
2013-03-25 11:33:00,42.3,31.8,29.65,NE,35,9.0,16.0,66,0.00,,---,0.00,VWS V14.01,2013-03-25 15:33:00,
2013-03-25 11:38:00,42.3,31.4,29.65,East,80,9.0,16.0,65,0.00,,---,0.00,VWS V14.01,2013-03-25 15:38:00,
2013-03-25 11:43:00,42.1,31.2,29.65,ENE,57,10.0,15.0,65,0.00,,---,0.00,VWS V14.01,2013-03-25 15:43:00,
2013-03-25 11:48:00,42.1,31.2,29.64,NE,44,3.0,14.0,65,0.00,,---,0.00,VWS V14.01,2013-03-25 15:48:00,
2013-03-25 11:53:00,42.0,31.1,29.64,ENE,68,5.0,14.0,65,0.00,,---,0.00,VWS V14.01,2013-03-25 15:53:00,
2013-03-25 11:58:00,42.4,31.1,29.64,ENE,73,6.0,14.0,64,0.00,,---,0.00,VWS V14.01,2013-03-25 15:58:00,
2013-03-25 12:04:00,43.7,32.0,29.63,NE,49,12.0,12.0,63,0.00,,---,0.00,VWS V14.01,2013-03-25 16:04:00,
2013-03-25 12:09:00,43.2,29.9,29.63,NE,46,11.0,15.0,59,0.00,,---,0.00,VWS V14.01,2013-03-25 16:09:00,
2013-03-25 12:14:00,43.2,30.7,29.62,ENE,62,4.0,16.0,61,0.00,,---,0.00,VWS V14.01,2013-03-25 16:14:00,
2013-03-25 12:19:00,42.7,30.2,29.62,NNE,29,10.0,20.0,61,0.00,,---,0.00,VWS V14.01,2013-03-25 16:19:00,
2013-03-25 12:24:00,42.4,30.7,29.61,NNE,15,6.0,18.0,63,0.00,,---,0.00,VWS V14.01,2013-03-25 16:24:00,
2013-03-25 12:29:00,42.5,30.8,29.61,ENE,58,6.0,20.0,63,0.00,,---,0.00,VWS V14.01,2013-03-25 16:29:00,
2013-03-25 12:34:00,42.7,31.4,29.61,ENE,61,14.0,16.0,64,0.00,,---,0.00,VWS V14.01,2013-03-25 16:34:00,
2013-03-25 12:39:00,43.0,30.5,29.61,NNE,24,12.0,16.0,61,0.00,,---,0.00,VWS V14.01,2013-03-25 16:39:00,
2013-03-25 12:44:00,43.0,30.9,29.60,NE,45,6.0,19.0,62,0.00,,---,0.00,VWS V14.01,2013-03-25 16:44:00,
2013-03-25 12:49:00,42.5,30.4,29.60,ENE,73,5.0,19.0,62,0.00,,---,0.00,VWS V14.01,2013-03-25 16:49:00,
2013-03-25 12:54:00,42.4,31.5,29.61,NE,45,6.0,16.0,65,0.00,,---,0.00,VWS V14.01,2013-03-25 16:54:00,
2013-03-25 12:59:00,42.3,31.0,29.61,NE,53,15.0,18.0,64,0.00,,---,0.00,VWS V14.01,2013-03-25 16:59:00,
2013-03-25 13:04:00,42.3,31.0,29.61,East,101,13.0,17.0,64,0.00,,---,0.00,VWS V14.01,2013-03-25 17:04:00,
2013-03-25 13:09:00,42.2,30.5,29.61,ENE,57,4.0,21.0,63,0.00,,---,0.00,VWS V14.01,2013-03-25 17:09:00,
2013-03-25 13:14:00,42.2,30.5,29.61,ENE,66,10.0,19.0,63,0.00,,---,0.00,VWS V14.01,2013-03-25 17:14:00,
2013-03-25 13:19:00,42.2,30.1,29.61,NNE,24,8.0,18.0,62,0.00,,---,0.00,VWS V14.01,2013-03-25 17:19:00,
2013-03-25 13:24:00,42.4,30.3,29.60,ENE,68,6.0,15.0,62,0.00,,---,0.00,VWS V14.01,2013-03-25 17:24:00,
2013-03-25 13:29:00,42.6,29.7,29.60,ENE,60,12.0,18.0,60,0.00,,---,0.00,VWS V14.01,2013-03-25 17:29:00,
2013-03-25 13:34:00,42.5,29.6,29.60,ENE,58,5.0,19.0,60,0.00,,---,0.00,VWS V14.01,2013-03-25 17:34:00,
2013-03-25 13:39:00,42.5,29.2,29.60,North,4,15.0,19.0,59,0.00,,---,0.00,VWS V14.01,2013-03-25 17:39:00,
2013-03-25 13:44:00,42.5,28.4,29.60,ENE,69,10.0,19.0,57,0.00,,---,0.00,VWS V14.01,2013-03-25 17:44:00,
2013-03-25 13:49:00,42.4,28.7,29.59,ENE,58,12.0,20.0,58,0.00,,---,0.00,VWS V14.01,2013-03-25 17:49:00,
2013-03-25 13:54:00,42.4,29.5,29.59,NE,44,12.0,19.0,60,0.00,,---,0.00,VWS V14.01,2013-03-25 17:54:00,
2013-03-25 13:59:00,42.4,29.5,29.59,NE,40,5.0,18.0,60,0.00,,---,0.00,VWS V14.01,2013-03-25 17:59:00,
2013-03-25 14:04:00,42.4,29.9,29.59,ENE,57,6.0,18.0,61,0.00,,---,0.00,VWS V14.01,2013-03-25 18:04:00,
2013-03-25 14:09:00,42.2,29.7,29.58,North,5,11.0,18.0,61,0.00,,---,0.00,VWS V14.01,2013-03-25 18:09:00,
2013-03-25 14:14:00,42.1,29.6,29.57,NE,54,11.0,20.0,61,0.00,,---,0.00,VWS V14.01,2013-03-25 18:14:00,
2013-03-25 14:19:00,42.0,29.5,29.56,NE,55,13.0,18.0,61,0.00,,---,0.00,VWS V14.01,2013-03-25 18:19:00,
2013-03-25 14:24:00,41.9,29.0,29.56,ENE,69,5.0,19.0,60,0.00,,---,0.00,VWS V14.01,2013-03-25 18:24:00,
2013-03-25 14:29:00,41.8,29.4,29.55,ENE,64,10.0,20.0,61,0.00,,---,0.00,VWS V14.01,2013-03-25 18:29:00,
2013-03-25 14:34:00,41.6,30.7,29.55,NE,52,12.0,23.0,65,0.00,,---,0.00,VWS V14.01,2013-03-25 18:34:00,
2013-03-25 14:39:00,41.6,30.3,29.54,NE,54,11.0,23.0,64,0.00,,---,0.00,VWS V14.01,2013-03-25 18:39:00,
2013-03-25 14:44:00,41.5,30.2,29.53,ENE,72,7.0,23.0,64,0.00,,---,0.00,VWS V14.01,2013-03-25 18:44:00,
2013-03-25 14:49:00,41.5,30.6,29.53,NE,50,9.0,23.0,65,0.00,,---,0.00,VWS V14.01,2013-03-25 18:49:00,
2013-03-25 14:54:00,41.3,30.8,29.52,ENE,62,14.0,20.0,66,0.00,,---,0.00,VWS V14.01,2013-03-25 18:54:00,
2013-03-25 14:59:00,41.0,30.5,29.51,NNE,33,16.0,23.0,66,0.00,,---,0.00,VWS V14.01,2013-03-25 18:59:00,
2013-03-25 15:04:00,41.0,30.9,29.51,NNE,24,14.0,25.0,67,0.00,,---,0.00,VWS V14.01,2013-03-25 19:04:00,
2013-03-25 15:09:00,40.9,30.1,29.49,ENE,64,13.0,23.0,65,0.00,,---,0.00,VWS V14.01,2013-03-25 19:09:00,
2013-03-25 15:14:00,40.8,31.1,29.49,ENE,68,12.0,20.0,68,0.00,,---,0.00,VWS V14.01,2013-03-25 19:14:00,
2013-03-25 15:19:00,40.7,31.7,29.49,NE,48,7.0,22.0,70,0.00,,---,0.00,VWS V14.01,2013-03-25 19:19:00,
2013-03-25 15:24:00,40.5,31.1,29.50,ENE,75,23.0,25.0,69,0.00,,---,0.00,VWS V14.01,2013-03-25 19:24:00,
2013-03-25 15:29:00,40.5,31.1,29.50,NE,37,10.0,26.0,69,0.00,,---,0.00,VWS V14.01,2013-03-25 19:29:00,
2013-03-25 15:34:00,40.6,31.6,29.50,NE,39,12.0,19.0,70,0.00,,---,0.00,VWS V14.01,2013-03-25 19:34:00,
2013-03-25 15:39:00,40.5,31.9,29.50,East,87,13.0,22.0,71,0.00,,---,0.00,VWS V14.01,2013-03-25 19:39:00,
2013-03-25 15:44:00,40.2,31.2,29.50,NE,54,20.0,20.0,70,0.00,,---,0.00,VWS V14.01,2013-03-25 19:44:00,
2013-03-25 15:49:00,40.1,30.8,29.50,ENE,61,14.0,24.0,69,0.00,,---,0.00,VWS V14.01,2013-03-25 19:49:00,
2013-03-25 15:54:00,40.0,30.7,29.50,East,85,19.0,27.0,69,0.00,,---,0.00,VWS V14.01,2013-03-25 19:54:00,
2013-03-25 15:59:00,39.9,30.6,29.50,ENE,57,10.0,26.0,69,0.00,,---,0.00,VWS V14.01,2013-03-25 19:59:00,
2013-03-25 16:04:00,39.9,30.9,29.50,ENE,73,15.0,19.0,70,0.00,,---,0.00,VWS V14.01,2013-03-25 20:04:00,
2013-03-25 16:09:00,39.8,30.5,29.50,ENE,59,13.0,21.0,69,0.00,,---,0.00,VWS V14.01,2013-03-25 20:09:00,
2013-03-25 16:14:00,39.8,30.8,29.49,East,91,14.0,21.0,70,0.00,,---,0.00,VWS V14.01,2013-03-25 20:14:00,
2013-03-25 16:19:00,39.8,31.5,29.50,NE,37,8.0,19.0,72,0.00,,---,0.00,VWS V14.01,2013-03-25 20:19:00,
2013-03-25 16:24:00,39.7,31.4,29.50,East,89,9.0,26.0,72,0.00,,---,0.00,VWS V14.01,2013-03-25 20:24:00,
2013-03-25 16:29:00,39.7,30.7,29.49,NE,48,17.0,25.0,70,0.00,,---,0.00,VWS V14.01,2013-03-25 20:29:00,
2013-03-25 16:34:00,39.7,30.4,29.49,ENE,58,11.0,23.0,69,0.00,,---,0.00,VWS V14.01,2013-03-25 20:34:00,
2013-03-25 16:39:00,39.6,30.3,29.49,East,81,21.0,24.0,69,0.00,,---,0.00,VWS V14.01,2013-03-25 20:39:00,
2013-03-25 16:44:00,39.6,30.6,29.49,NE,55,24.0,24.0,70,0.00,,---,0.00,VWS V14.01,2013-03-25 20:44:00,
2013-03-25 16:49:00,39.6,30.3,29.49,ENE,60,11.0,26.0,69,0.00,,---,0.00,VWS V14.01,2013-03-25 20:49:00,
2013-03-25 16:55:00,39.5,30.2,29.50,East,93,16.0,25.0,69,0.00,,---,0.00,VWS V14.01,2013-03-25 20:55:00,
2013-03-25 17:00:00,39.5,30.5,29.49,East,89,12.0,23.0,70,0.00,,---,0.00,VWS V14.01,2013-03-25 21:00:00,
2013-03-25 17:05:00,39.5,30.5,29.49,ENE,64,7.0,23.0,70,0.00,,---,0.00,VWS V14.01,2013-03-25 21:05:00,
2013-03-25 17:10:00,39.5,30.5,29.49,ENE,70,11.0,26.0,70,0.00,,---,0.00,VWS V14.01,2013-03-25 21:10:00,
2013-03-25 17:15:00,39.4,31.1,29.49,NNE,29,6.0,20.0,72,0.00,,---,0.00,VWS V14.01,2013-03-25 21:15:00,
2013-03-25 17:20:00,39.4,30.4,29.49,ENE,69,8.0,22.0,70,0.00,,---,0.00,VWS V14.01,2013-03-25 21:20:00,
2013-03-25 17:25:00,39.4,30.8,29.49,ESE,114,12.0,20.0,71,0.00,,---,0.00,VWS V14.01,2013-03-25 21:25:00,
2013-03-25 17:30:00,39.4,31.1,29.50,ENE,57,9.0,19.0,72,0.00,,---,0.00,VWS V14.01,2013-03-25 21:30:00,
2013-03-25 17:35:00,39.4,31.1,29.49,NE,53,12.0,23.0,72,0.00,,---,0.00,VWS V14.01,2013-03-25 21:35:00,
2013-03-25 17:40:00,39.4,31.5,29.50,NE,55,14.0,21.0,73,0.00,,---,0.00,VWS V14.01,2013-03-25 21:40:00,
2013-03-25 17:45:00,39.4,31.1,29.50,NE,48,12.0,23.0,72,0.00,,---,0.00,VWS V14.01,2013-03-25 21:45:00,
2013-03-25 17:50:00,39.3,31.4,29.49,ENE,62,15.0,22.0,73,0.00,,---,0.00,VWS V14.01,2013-03-25 21:50:00,
2013-03-25 17:55:00,39.3,31.7,29.49,East,79,10.0,23.0,74,0.00,,---,0.00,VWS V14.01,2013-03-25 21:55:00,
2013-03-25 18:00:00,39.3,31.7,29.49,NNE,29,12.0,23.0,74,0.00,,---,0.00,VWS V14.01,2013-03-25 22:00:00,
2013-03-25 18:05:00,39.2,31.3,29.49,NE,49,16.0,21.0,73,0.00,,---,0.00,VWS V14.01,2013-03-25 22:05:00,
2013-03-25 18:10:00,39.2,31.3,29.49,NE,38,14.0,23.0,73,0.00,,---,0.00,VWS V14.01,2013-03-25 22:10:00,
2013-03-25 18:15:00,39.1,31.2,29.49,NNE,24,12.0,23.0,73,0.00,,---,0.00,VWS V14.01,2013-03-25 22:15:00,
2013-03-25 18:20:00,39.1,31.2,29.49,NE,49,15.0,22.0,73,0.00,,---,0.00,VWS V14.01,2013-03-25 22:20:00,
2013-03-25 18:25:00,39.1,31.2,29.49,NE,42,15.0,24.0,73,0.00,,---,0.00,VWS V14.01,2013-03-25 22:25:00,
2013-03-25 18:30:00,39.1,31.5,29.49,ENE,65,9.0,23.0,74,0.00,,---,0.00,VWS V14.01,2013-03-25 22:30:00,
2013-03-25 18:35:00,39.0,31.8,29.49,East,93,7.0,19.0,75,0.00,,---,0.00,VWS V14.01,2013-03-25 22:35:00,
2013-03-25 18:40:00,39.0,31.8,29.49,ENE,65,16.0,23.0,75,0.00,,---,0.00,VWS V14.01,2013-03-25 22:40:00,
2013-03-25 18:45:00,39.0,31.4,29.49,ENE,62,12.0,22.0,74,0.00,,---,0.00,VWS V14.01,2013-03-25 22:45:00,
2013-03-25 18:50:00,38.9,31.7,29.49,ENE,60,24.0,24.0,75,0.00,,---,0.00,VWS V14.01,2013-03-25 22:50:00,
2013-03-25 18:55:00,38.9,31.7,29.50,ENE,70,15.0,20.0,75,0.00,,---,0.00,VWS V14.01,2013-03-25 22:55:00,
2013-03-25 19:00:00,38.9,31.3,29.49,NNE,29,13.0,26.0,74,0.00,,---,0.00,VWS V14.01,2013-03-25 23:00:00,
2013-03-25 19:05:00,38.9,31.7,29.49,NNE,29,18.0,24.0,75,0.00,,---,0.00,VWS V14.01,2013-03-25 23:05:00,
2013-03-25 19:10:00,38.9,31.3,29.49,NE,39,16.0,21.0,74,0.00,,---,0.00,VWS V14.01,2013-03-25 23:10:00,
2013-03-25 19:15:00,38.9,31.3,29.49,ENE,73,7.0,24.0,74,0.00,,---,0.00,VWS V14.01,2013-03-25 23:15:00,
2013-03-25 19:20:00,38.9,31.3,29.50,ENE,66,18.0,22.0,74,0.00,,---,0.00,VWS V14.01,2013-03-25 23:20:00,
2013-03-25 19:25:00,38.9,31.7,29.49,NNE,33,10.0,21.0,75,0.00,,---,0.00,VWS V14.01,2013-03-25 23:25:00,
2013-03-25 19:30:00,38.8,31.9,29.50,ENE,70,13.0,20.0,76,0.00,,---,0.00,VWS V14.01,2013-03-25 23:30:00,
2013-03-25 19:35:00,38.8,31.9,29.50,NE,50,12.0,20.0,76,0.00,,---,0.00,VWS V14.01,2013-03-25 23:35:00,
2013-03-25 19:40:00,38.8,32.2,29.50,East,81,4.0,15.0,77,0.00,,---,0.00,VWS V14.01,2013-03-25 23:40:00,
2013-03-25 19:45:00,38.7,32.1,29.50,NNE,24,6.0,18.0,77,0.00,,---,0.00,VWS V14.01,2013-03-25 23:45:00,
2013-03-25 19:50:00,38.6,32.3,29.50,East,87,12.0,17.0,78,0.00,,---,0.00,VWS V14.01,2013-03-25 23:50:00,
2013-03-25 19:55:00,38.4,32.5,29.50,NNW,343,16.0,17.0,79,0.00,,---,0.00,VWS V14.01,2013-03-25 23:55:00,
2013-03-25 20:00:00,38.3,32.7,29.50,NNE,19,5.0,16.0,80,0.00,,---,0.00,VWS V14.01,2013-03-26 00:00:00,
2013-03-25 20:05:00,38.2,32.3,29.50,NNE,19,10.0,18.0,79,0.00,,---,0.00,VWS V14.01,2013-03-26 00:05:00,
2013-03-25 20:10:00,38.2,32.3,29.50,North,1,6.0,16.0,79,0.00,,---,0.00,VWS V14.01,2013-03-26 00:10:00,
2013-03-25 20:15:00,38.2,32.6,29.50,NE,55,4.0,12.0,80,0.00,,---,0.00,VWS V14.01,2013-03-26 00:15:00,
2013-03-25 20:20:00,38.1,32.5,29.50,North,4,7.0,18.0,80,0.00,,---,0.00,VWS V14.01,2013-03-26 00:20:00,
2013-03-25 20:25:00,38.1,32.5,29.50,NE,39,15.0,15.0,80,0.00,,---,0.00,VWS V14.01,2013-03-26 00:25:00,
2013-03-25 20:30:00,38.1,32.8,29.50,NNE,29,9.0,9.0,81,0.00,,---,0.00,VWS V14.01,2013-03-26 00:30:00,
2013-03-25 20:35:00,38.0,32.7,29.50,NE,43,10.0,17.0,81,0.00,,---,0.00,VWS V14.01,2013-03-26 00:35:00,
2013-03-25 20:40:00,38.1,32.8,29.50,NNE,29,6.0,17.0,81,0.00,,---,0.00,VWS V14.01,2013-03-26 00:40:00,
2013-03-25 20:45:00,38.0,33.0,29.50,North,1,7.0,17.0,82,0.00,,---,0.00,VWS V14.01,2013-03-26 00:45:00,
2013-03-25 20:50:00,38.0,33.0,29.50,NW,323,10.0,11.0,82,0.00,,---,0.00,VWS V14.01,2013-03-26 00:50:00,
2013-03-25 20:55:00,37.6,33.2,29.50,ENE,61,6.0,14.0,84,0.00,,---,0.00,VWS V14.01,2013-03-26 00:55:00,
2013-03-25 21:00:00,36.9,33.1,29.50,NE,54,14.0,18.0,86,0.00,,---,0.00,VWS V14.01,2013-03-26 01:00:00,
2013-03-25 21:05:00,36.2,33.3,29.50,NE,46,11.0,21.0,89,0.01,,---,0.01,VWS V14.01,2013-03-26 01:05:00,
2013-03-25 21:10:00,36.1,33.5,29.50,ENE,73,10.0,24.0,90,0.01,,---,0.01,VWS V14.01,2013-03-26 01:10:00,
2013-03-25 21:15:00,36.2,33.8,29.50,NE,45,10.0,16.0,91,0.01,,---,0.01,VWS V14.01,2013-03-26 01:15:00,
2013-03-25 21:20:00,36.2,33.6,29.50,ENE,71,12.0,18.0,90,0.01,,---,0.01,VWS V14.01,2013-03-26 01:20:00,
2013-03-25 21:25:00,36.3,33.7,29.50,NNW,341,9.0,19.0,90,0.01,,---,0.01,VWS V14.01,2013-03-26 01:25:00,
2013-03-25 21:30:00,36.4,33.8,29.50,NE,53,12.0,18.0,90,0.01,,---,0.01,VWS V14.01,2013-03-26 01:30:00,
2013-03-25 21:35:00,36.5,33.6,29.49,NNE,19,4.0,18.0,89,0.01,,---,0.01,VWS V14.01,2013-03-26 01:35:00,
2013-03-25 21:40:00,36.6,33.7,29.50,North,5,7.0,14.0,89,0.01,,---,0.01,VWS V14.01,2013-03-26 01:40:00,
2013-03-25 21:45:00,36.6,33.4,29.49,NNE,33,16.0,18.0,88,0.01,,---,0.01,VWS V14.01,2013-03-26 01:45:00,
2013-03-25 21:50:00,36.2,33.3,29.49,NNE,19,11.0,21.0,89,0.01,,---,0.01,VWS V14.01,2013-03-26 01:50:00,
2013-03-25 21:55:00,35.9,33.3,29.49,ENE,64,12.0,12.0,90,0.01,,---,0.01,VWS V14.01,2013-03-26 01:55:00,
2013-03-25 22:00:00,35.8,33.4,29.49,NE,35,14.0,14.0,91,0.01,,---,0.01,VWS V14.01,2013-03-26 02:00:00,
2013-03-25 22:05:00,35.8,33.4,29.49,NNW,328,9.0,16.0,91,0.01,,---,0.01,VWS V14.01,2013-03-26 02:05:00,
2013-03-25 22:10:00,36.0,33.6,29.49,NNE,33,7.0,18.0,91,0.00,,---,0.01,VWS V14.01,2013-03-26 02:10:00,
2013-03-25 22:15:00,36.0,33.4,29.49,North,6,13.0,13.0,90,0.00,,---,0.01,VWS V14.01,2013-03-26 02:15:00,
2013-03-25 22:20:00,36.0,33.6,29.49,NNE,29,7.0,16.0,91,0.00,,---,0.01,VWS V14.01,2013-03-26 02:20:00,
2013-03-25 22:25:00,36.2,33.8,29.49,NE,37,11.0,17.0,91,0.00,,---,0.01,VWS V14.01,2013-03-26 02:25:00,
2013-03-25 22:30:00,36.4,33.8,29.49,NNE,24,17.0,20.0,90,0.00,,---,0.01,VWS V14.01,2013-03-26 02:30:00,
2013-03-25 22:35:00,36.6,33.7,29.49,NE,36,11.0,11.0,89,0.00,,---,0.01,VWS V14.01,2013-03-26 02:35:00,
2013-03-25 22:40:00,36.8,33.6,29.49,NNE,12,3.0,3.0,88,0.00,,---,0.01,VWS V14.01,2013-03-26 02:40:00,
2013-03-25 22:45:00,36.9,33.7,29.49,ENE,60,10.0,10.0,88,0.00,,---,0.01,VWS V14.01,2013-03-26 02:45:00,
2013-03-25 22:50:00,36.9,33.4,29.49,East,85,7.0,7.0,87,0.00,,---,0.01,VWS V14.01,2013-03-26 02:50:00,
2013-03-25 22:55:00,36.9,33.7,29.49,North,4,13.0,16.0,88,0.01,,---,0.02,VWS V14.01,2013-03-26 02:55:00,
2013-03-25 23:00:00,36.9,33.4,29.49,NNE,19,13.0,13.0,87,0.01,,---,0.02,VWS V14.01,2013-03-26 03:00:00,
2013-03-25 23:05:00,37.0,33.2,29.49,North,353,6.0,6.0,86,0.01,,---,0.02,VWS V14.01,2013-03-26 03:05:00,
2013-03-25 23:10:00,37.0,33.5,29.49,NNE,14,11.0,11.0,87,0.01,,---,0.02,VWS V14.01,2013-03-26 03:10:00,
2013-03-25 23:15:00,37.1,33.3,29.49,ENE,64,5.0,5.0,86,0.01,,---,0.02,VWS V14.01,2013-03-26 03:15:00,
2013-03-25 23:20:00,37.3,33.5,29.49,NNW,334,8.0,8.0,86,0.01,,---,0.02,VWS V14.01,2013-03-26 03:20:00,
2013-03-25 23:25:00,37.4,33.0,29.48,NE,52,12.0,12.0,84,0.01,,---,0.02,VWS V14.01,2013-03-26 03:25:00,
2013-03-25 23:30:00,37.5,33.1,29.49,NNE,15,5.0,5.0,84,0.01,,---,0.02,VWS V14.01,2013-03-26 03:30:00,
2013-03-25 23:35:00,37.7,32.7,29.48,NNW,337,9.0,14.0,82,0.01,,---,0.02,VWS V14.01,2013-03-26 03:35:00,
2013-03-25 23:40:00,37.8,32.8,29.49,NE,39,7.0,9.0,82,0.01,,---,0.02,VWS V14.01,2013-03-26 03:40:00,
2013-03-25 23:45:00,37.8,32.8,29.49,ENE,57,10.0,10.0,82,0.01,,---,0.02,VWS V14.01,2013-03-26 03:45:00,
2013-03-25 23:50:00,37.8,33.1,29.49,North,6,3.0,4.0,83,0.01,,---,0.02,VWS V14.01,2013-03-26 03:50:00,
2013-03-25 23:55:00,37.8,33.1,29.49,NE,38,6.0,10.0,83,0.00,,---,0.02,VWS V14.01,2013-03-26 03:55:00,